Regional Weather Roundup
Issued by NWS

Home | Current Version | Previous Version | Graphics & Text | Print | Product List | Glossary On
Versions: 1 2 3 4 5 6 7 8 9 10 11 12 13 14 15 16 17 18 19 20 21 22 23 24 25 26 27
000
ASUS45 KBOU 180906
RWRCO

WEATHER ROUNDUP FOR COLORADO
NATIONAL WEATHER SERVICE DENVER/BOULDER CO
300 AM MDT FRI APR 18 2014

NOTE: "FAIR" INDICATES FEW OR NO CLOUDS BELOW 12000 FEET WITH NO
SIGNIFICANT WEATHER AND/OR OBSTRUCTIONS TO VISIBILITY.

COZ001>005-013-030-031-181000-
...NORTHWEST COLORADO...

CITY           SKY/WX    TMP DP  RH WIND       PRES   REMARKS
CRAIG          PTCLDY    31  25  78 CALM      30.06F
HAYDEN         PTCLDY    37  25  60 E14       30.09F
MEEKER         CLEAR     35  27  72 E5        30.07F WCI  31
MOUNT WERNER   PTCLDY    37  12  35 SW15      30.22F
STEAMBOAT SPGS PTCLDY    34  23  63 CALM      30.09F
WALDEN         CLEAR     32  21  64 SE7       30.11F WCI  26
$$

COZ006>008-011-181000-
...WEST CENTRAL VALLEYS...

CITY           SKY/WX    TMP DP  RH WIND       PRES   REMARKS
GRAND JUNCTION CLEAR     45  27  49 E13       30.01F
MONTROSE       CLEAR     45  27  49 NW3       30.10S
EAGLE          CLEAR     34  27  75 CALM      30.15F
RIFLE          CLEAR     37  27  67 CALM      30.09S
DELTA          PTCLDY    46  28  49 E7        30.07S
NUCLA            N/A     45  25  45 E5        30.11F
$$

COZ017>023-064>068-181000-
...SOUTHWEST COLORADO...

CITY           SKY/WX    TMP DP  RH WIND       PRES   REMARKS
DURANGO        CLEAR     32  17  54 NE5       30.17S WCI  27
CORTEZ         CLEAR     33  23  66 CALM      30.11S
PAGOSA SPRINGS CLEAR     32  21  62 CALM      30.23S
TELLURIDE      CLEAR     37  21  52 SE8       30.23F
WOLF CREEK PAS PTCLDY    30  14  51 SW23      30.35S WCI  17
$$

COZ009-010-012-014-032>034-037-058>063-181000-
...CENTRAL COLORADO...

CITY           SKY/WX    TMP DP  RH WIND       PRES   REMARKS
ASPEN          CLEAR     35  21  56 S7        30.16F WCI  29
BUENA VISTA    PTCLDY    36  22  57 W6        30.19S
COPPER MTN     CLEAR     34  18  51 SW14G21   30.31S WCI  24
BERTHOUD PASS  FAIR      27  18  69 W28       30.28S WCI  11
COTTONWOOD PAS PTCLDY    43  18  36 W16G23    30.24S
GUNNISON       CLEAR     28  19  69 CALM      30.25S
KREMMLING      CLEAR     32  23  69 N7        30.14S WCI  26
LEADVILLE      CLEAR     26  15  63 NE7       30.23S WCI  18
MONARCH PASS   CLEAR     28  18  64 SW21G28   30.43S WCI  15
SALIDA         PTCLDY    40  26  56 W10       30.23F
SUNLIGHT       CLEAR     34  23  64 CALM      30.26F
WILKERSON PASS CLEAR     32  18  55 SW16G24   30.28S WCI  21
$$

COZ069>075-181000-
...SAN LUIS VALLEY/SANGRE DE CRISTO MOUNTAINS...

CITY           SKY/WX    TMP DP  RH WIND       PRES   REMARKS
ALAMOSA        CLEAR     35  28  75 SE6       30.20S WCI  30
LA VETA PASS   CLEAR     34  23  64 SW13G22   30.23S WCI  25
SAGUACHE       NOT AVBL
$$

COZ035-036-038>040-181000-
...NORTHERN COLORADO FRONT RANGE...

CITY           SKY/WX    TMP DP  RH WIND       PRES   REMARKS
DENVER INTL AP MOCLDY    43  30  60 S12       29.99F
DMNS CITY PARK   N/A     47  31  54 S5        29.99F
AURORA         MOCLDY    45  30  57 S13       30.01S
FRONT RANGE AP NOT AVBL
ERIE MUNI ARPT PTCLDY    39  33  81 SE3       29.98F
BOULDER MUN AP PTCLDY    45  30  57 CALM      29.98S
CENTENNIAL     PTCLDY    42  28  57 SE6       30.02S
BROOMFIELD     PTCLDY    43  30  61 SW8       30.00F
FORT COLLINS   PTCLDY    39  30  70 N7        30.00S
LONGMONT       PTCLDY    39  31  72 W5        30.00F
$$

COZ041-046-047-076>085-087-088-181000-
...PIKES PEAK/PALMER DIVIDE AND SOUTHERN FOOTHILLS...

CITY           SKY/WX    TMP DP  RH WIND       PRES   REMARKS
COLO. SPRINGS  MOCLDY    34  30  85 N7        30.09F WCI  28
A. F. ACADEMY  CLEAR     30  30  99 VRB6      30.08F WCI  24
ELLICOTT       NOT AVBL
FALCON         CLEAR     31  29  94 W6        30.09F WCI  25
FORT CARSON    CLEAR     33  31  94 NW6       30.07F WCI  27
LIMON          CLEAR     31  30  96 SE7       30.08F WCI  24
MONUMENT HILL  PTCLDY    34  30  86 SW9       30.07S WCI  26
TRINIDAD       CLEAR     43  32  65 W22       30.07F
$$

COZ042>045-048>051-090-091-181000-
...NORTHEAST COLORADO...

CITY           SKY/WX    TMP DP  RH WIND       PRES   REMARKS
GREELEY ARPT   PTCLDY    36  27  69 CALM      29.99S
AKRON          CLEAR     39  34  82 S12       30.00F
BURLINGTON     CLEAR     37  32  82 S22       30.09F
WRAY           CLEAR     41  36  81 S14       30.05F
STERLING       CLEAR     41  37  87 S8        29.99F
HOLYOKE        CLEAR     41  36  81 S13       30.03F
FORT MORGAN    CLEAR     38  34  84 S8        30.00F
$$

COZ086-089-092>099-181000-
...SOUTHEAST COLORADO...

CITY           SKY/WX    TMP DP  RH WIND       PRES   REMARKS
PUEBLO         CLEAR     39  35  86 N8        30.06F
LA JUNTA       PTCLDY    40  34  79 SE8       30.05F
LAMAR          CLEAR     42  34  73 S13       30.08S
SPRINGFIELD      N/A     37  34  89 S18       30.12F
$$



USA.gov is the U.S. government's official web portal to all federal, state and local government web resources and services.